Regional Weather Roundup
Issued by NWS Charleston, WV

Home | Current Version | Previous Version | Text Only | Print | Product List | Glossary Off
Versions: 1 2 3 4 5 6 7 8 9 10 11 12 13 14 15 16 17 18 19 20 21 22 23 24 25 26 27 28 29 30 31 32 33 34 35 36 37 38 39 40 41 42 43 44 45 46 47 48 49 50

000
ASUS41 KRLX 260110
RWRRLX
West Virginia Regional Weather Roundup
National Weather Service Charleston WV
900 PM EDT MON MAY 25 2015

Note: "fair" indicates few or no clouds below 12,000 feet with no
significant weather and/or obstructions to visibility.

WVZ003-260200-
Northern Panhandle of West Virginia

CITY           SKY/WX    TMP DP  RH WIND       PRES   REMARKS
WHEELING       NOT AVBL
$$

WVZ009-260200-
Northwest West Virginia

CITY           SKY/WX    TMP DP  RH WIND       PRES   REMARKS
PARKERSBURG    PTCLDY    77  61  57 SW6       30.16R
$$

WVZ006-260200-
Western West Virginia

CITY           SKY/WX    TMP DP  RH WIND       PRES   REMARKS
HUNTINGTON     CLOUDY    75  63  66 CALM      30.12F
$$

WVZ015-260200-
West Central West Virginia

CITY           SKY/WX    TMP DP  RH WIND       PRES   REMARKS
CHARLESTON     PTCLDY    76  63  64 CALM      30.13S
$$

WVZ022-031-260200-
North Central West Virginia

CITY           SKY/WX    TMP DP  RH WIND       PRES   REMARKS
CLARKSBURG     CLEAR     73  60  63 CALM      30.15R
MORGANTOWN     CLEAR     79  56  45 CALM      30.16R
$$

WVZ025-035-042-045-260200-
Southern West Virginia

CITY           SKY/WX    TMP DP  RH WIND       PRES   REMARKS
BECKLEY        MOCLDY    72  57  59 SE9       30.24R
LOGAN          MOCLDY    77  63  61 CALM      30.15S
BLUEFIELD      PTCLDY    72  56  57 S8        30.28R
LEWISBURG      CLEAR     73  55  53 S3        30.26S
$$

WVZ047-260200-
Northern Mountains of West Virginia

CITY           SKY/WX    TMP DP  RH WIND       PRES   REMARKS
ELKINS         CLEAR     67  57  70 CALM      30.20R
$$

WVZ052-260200-
Eastern Panhandle of West Virginia

CITY           SKY/WX    TMP DP  RH WIND       PRES   REMARKS
MARTINSBURG    CLEAR     74  58  57 S8        30.17S
PETERSBURG     CLEAR     76  56  50 E6        30.17R
$$



USA.gov is the U.S. government's official web portal to all federal, state and local government web resources and services.